Location: Unspecified
(40.9447°N, 78.9903°W)
Time: 21:41:56
(UTC-04:00)

X-37B - Visible Passes

Search period start: 10 June 2023 00:00
Search period end: 20 June 2023 00:00
Orbit: 277 x 277 km, 45.0° (Epoch: 01 November)

Date Brightness Start Highest point End Pass type
(mag) Time Alt. Az. Time Alt. Az. Time Alt. Az.
10 Jun 0.8 04:14:01 32° S 04:14:25 34° SSE 04:16:41 10° E visible
11 Jun -0.1 04:14:25 42° SW 04:15:03 66° SSE 04:17:29 10° ENE visible
12 Jun 0.0 04:14:48 32° W 04:15:43 69° NNW 04:18:10 10° ENE visible
13 Jun 0.9 04:15:10 21° WNW 04:16:27 44° NNW 04:18:50 10° ENE visible
14 Jun 1.5 04:15:30 15° WNW 04:17:13 33° N 04:19:30 10° ENE visible
15 Jun 3.3 02:45:51 12° ENE 02:45:51 12° ENE 02:46:03 10° ENE visible
15 Jun 1.8 04:15:53 11° WNW 04:18:00 29° N 04:20:14 10° ENE visible
16 Jun 3.1 02:46:14 14° ENE 02:46:14 14° ENE 02:46:43 10° ENE visible
16 Jun 1.9 04:16:35 10° WNW 04:18:48 28° N 04:21:01 10° ENE visible
17 Jun 3.0 02:46:42 16° NE 02:46:42 16° NE 02:47:23 10° ENE visible
17 Jun 1.8 04:17:20 10° WNW 04:19:36 31° N 04:21:50 10° ENE visible
18 Jun 3.0 02:47:17 17° NE 02:47:17 17° NE 02:48:05 10° ENE visible
18 Jun 1.4 04:18:01 10° WNW 04:20:22 38° NNE 04:22:42 10° E visible
19 Jun 3.0 02:48:04 16° NE 02:48:04 16° NE 02:48:51 10° ENE visible
19 Jun 0.6 04:18:41 10° WNW 04:21:06 56° NNE 04:23:32 10° E visible
